HORIZONS 3E (43633 NORAD) Tracking and Keplerian Element Data

This shows tracking and keplerian element data for the satellite.

Feedback or suggestion? Click here.




ElementValue
Catalog43633
NameHORIZONS 3E
Epoch Orbit35
Epoch Day297.44319662
Epoch Year2018
RAAN268.9397
Inclination0.0559
Eccentricity0.0001322
Argument of Perigee312.2725
Mean Anonmoly135.3871
Mean Motion1.00273084
Decay Rate-7E-07
L11 43633U 18074B 18297.44319662 -.00000070 00000-0 00000+0 0 9998
L22 43633 0.0559 268.9397 0001322 312.2725 135.3871 1.00273084 355

Live tracking and technical data element details for HORIZONS 3E (NORAD 43633). HORIZONS 3E can be tracked NOW for your location showing map with azimuth and elevation plus other details from your city location.

Track the satellite on the map from your city or location and see movement details for azimuth, elevation, latitude, longitude, range, height, and movement on the map or in text.







IsCatalogInMostPopularTable: catalog: 43633, numindb: 19
Update: records affected: 1



GetName: 43633 HORIZONS 3E

Hit Count: updated at: Tue, 20 Nov 2018 11:24:31 GMT